Location: Gerlach
(40.6516°N, 119.3568°W)
Time: 07:31:57
(UTC-08:00)

Explorer 7 - All Passes

Search period start: 27 January 2023 00:00
Search period end: 06 February 2023 00:00
Orbit: 480 x 661 km, 50.3° (Epoch: 26 January)

Date Brightness Start Highest point End Pass type
(mag) Time Alt. Az. Time Alt. Az. Time Alt. Az.
27 Jan - 12:52:14 10° S 12:55:28 22° SE 12:58:51 10° E daylight
27 Jan - 14:31:05 10° WSW 14:35:23 69° NNW 14:39:57 10° NE daylight
27 Jan - 16:12:28 10° WNW 16:16:20 27° N 16:20:21 10° NE daylight
27 Jan - 17:53:46 10° NW 17:57:43 27° N 18:01:47 10° ENE visible
27 Jan - 19:34:04 10° NW 19:38:46 61° NNE 19:43:31 10° ESE visible
27 Jan - 21:14:46 10° WNW 21:18:57 30° SW 21:23:05 10° SSE visible
28 Jan - 12:52:33 10° SSW 12:56:18 33° SE 13:00:16 10° ENE daylight
28 Jan - 14:32:17 10° WSW 14:36:28 50° NNW 14:40:56 10° NE daylight
28 Jan - 16:13:51 10° WNW 16:17:35 25° N 16:21:29 10° NE daylight
28 Jan - 17:54:51 10° NW 17:58:58 30° NNE 18:03:11 10° ENE visible
28 Jan - 19:35:04 10° NW 19:39:49 82° NE 19:44:38 10° ESE visible
28 Jan - 21:16:16 10° W 21:19:45 20° SW 21:23:15 10° S visible
29 Jan - 12:53:09 10° SW 12:57:11 50° SE 13:01:28 10° ENE daylight
29 Jan - 14:33:33 10° W 14:37:37 39° NNW 14:41:55 10° NE daylight
29 Jan - 16:15:09 10° NW 16:18:51 24° N 16:22:41 10° NE daylight
29 Jan - 17:55:53 10° NW 18:00:09 35° NNE 18:04:33 10° E visible
29 Jan - 19:36:05 10° WNW 19:40:48 72° SW 19:45:35 10° SE visible
29 Jan - 21:18:17 10° W 21:20:32 13° SW 21:22:46 10° SSW visible
30 Jan - 11:17:06 10° SSE 11:18:33 12° SE 11:20:02 10° ESE daylight
30 Jan - 12:53:58 10° SW 12:58:06 76° SE 13:02:33 10° ENE daylight
30 Jan - 14:34:52 10° W 14:38:46 32° NNW 14:42:53 10° NE daylight
30 Jan - 16:16:23 10° NW 16:20:06 24° N 16:23:56 10° ENE daylight
30 Jan - 17:56:50 10° NW 18:01:17 43° NNE 18:05:51 10° E visible
30 Jan - 19:37:10 10° WNW 19:41:44 49° SW 19:46:21 10° SSE visible
31 Jan - 11:16:25 10° S 11:19:16 18° SE 11:22:14 10° E daylight
31 Jan - 12:54:56 10° WSW 12:59:05 75° NNW 13:03:31 10° NE daylight
31 Jan - 14:36:13 10° WNW 14:39:57 27° NNW 14:43:53 10° NE daylight
31 Jan - 16:17:31 10° NW 16:21:19 26° N 16:25:15 10° ENE daylight
31 Jan - 17:57:47 10° NW 18:02:21 56° NNE 18:07:04 10° ESE visible
31 Jan - 19:38:20 10° WNW 19:42:35 33° SW 19:46:52 10° SSE visible
01 Feb - 11:16:33 10° SSW 11:20:02 28° SE 11:23:42 10° ENE daylight
01 Feb - 12:56:02 10° WSW 13:00:06 53° NNW 13:04:27 10° NE daylight
01 Feb - 14:37:32 10° WNW 14:41:09 25° N 14:44:55 10° NE daylight
01 Feb - 16:18:33 10° NW 16:22:29 28° NNE 16:26:34 10° ENE daylight
01 Feb - 17:58:43 10° NW 18:03:22 75° NNE 18:08:09 10° ESE visible
01 Feb - 19:39:42 10° W 19:43:22 23° SW 19:47:05 10° S visible
02 Feb - 11:17:01 10° SSW 11:20:50 43° SE 11:24:54 10° ENE daylight
02 Feb - 12:57:13 10° W 13:01:10 40° NNW 13:05:21 10° NE daylight
02 Feb - 14:38:47 10° WNW 14:42:20 23° N 14:46:01 10° NE daylight
02 Feb - 16:19:31 10° NW 16:23:38 33° NNE 16:27:53 10° E daylight
02 Feb - 17:59:40 10° WNW 18:04:18 79° SW 18:09:05 10° SE visible
02 Feb - 19:41:27 10° W 19:44:05 15° SW 19:46:46 10° SSW visible
03 Feb - 11:17:42 10° SW 11:21:41 67° SE 11:25:56 10° ENE daylight
03 Feb - 12:58:28 10° W 13:02:15 32° NNW 13:06:15 10° NE daylight
03 Feb - 14:39:58 10° NW 14:43:31 23° N 14:47:12 10° ENE daylight
03 Feb - 16:20:26 10° NW 16:24:42 40° NNE 16:29:09 10° E daylight
03 Feb - 18:00:39 10° WNW 18:05:11 54° SW 18:09:50 10° SE visible
04 Feb - 09:40:30 10° SSE 09:42:52 15° SE 09:45:19 10° E daylight
04 Feb - 11:18:34 10° WSW 11:22:35 82° NNW 11:26:52 10° NE daylight
04 Feb - 12:59:45 10° WNW 13:03:22 27° NNW 13:07:10 10° NE daylight
04 Feb - 14:41:04 10° NW 14:44:41 24° N 14:48:26 10° ENE daylight
04 Feb - 16:21:19 10° NW 16:25:44 51° NNE 16:30:20 10° ESE daylight
04 Feb - 18:01:45 10° WNW 18:06:00 37° SW 18:10:22 10° SSE visible
05 Feb - 09:40:22 10° S 09:43:33 24° SE 09:46:53 10° ENE daylight
05 Feb - 11:19:34 10° WSW 11:23:32 57° NNW 11:27:45 10° NE daylight
05 Feb - 13:01:01 10° WNW 13:04:29 24° N 13:08:07 10° NE daylight
05 Feb - 14:42:05 10° NW 14:45:48 26° NNE 14:49:42 10° ENE daylight
05 Feb - 16:22:11 10° NW 16:26:41 68° NNE 16:31:23 10° ESE daylight
05 Feb - 18:02:59 10° W 18:06:45 25° SW 18:10:36 10° S visible
